Regional Weather Roundup
Issued by NWS

Home | Current Version | Previous Version | Graphics & Text | Print | Product List | Glossary On
Versions: 1 2 3 4 5 6 7 8 9 10 11 12 13 14 15 16 17 18 19 20 21 22 23 24 25 26 27 28 29 30 31 32 33 34 35 36 37 38 39 40 41 42 43 44 45 46 47 48 49 50
000
ASUS45 KBOU 010907
RWRCO

WEATHER ROUNDUP FOR COLORADO
NATIONAL WEATHER SERVICE DENVER/BOULDER CO
300 AM MDT TUE SEP 01 2015

NOTE: "FAIR" INDICATES FEW OR NO CLOUDS BELOW 12000 FEET WITH NO
SIGNIFICANT WEATHER AND/OR OBSTRUCTIONS TO VISIBILITY.

COZ001>005-013-030-031-011000-
...NORTHWEST COLORADO...

CITY           SKY/WX    TMP DP  RH WIND       PRES   REMARKS
CRAIG          CLEAR     45  42  89 CALM      30.20S
HAYDEN         NOT AVBL
MEEKER         CLEAR     51  46  83 E8        30.21F
MOUNT WERNER   NOT AVBL
STEAMBOAT SPGS CLEAR     45  44  93 CALM      30.25S
WALDEN         CLEAR     36  34  93 SE9       30.31S
$$

COZ006>008-011-011000-
...WEST CENTRAL VALLEYS...

CITY           SKY/WX    TMP DP  RH WIND       PRES   REMARKS
GRAND JUNCTION PTCLDY    62  51  67 E5        30.10S
MONTROSE       CLEAR     57  48  72 S6        30.19S
EAGLE          CLEAR     50  46  87 CALM      30.29S
RIFLE          CLEAR     57  50  77 CALM      30.17S
DELTA          CLEAR     64  52  64 E6        30.15S
NUCLA          CLEAR     59  43  55 E8        30.23S
$$

COZ017>023-064>068-011000-
...SOUTHWEST COLORADO...

CITY           SKY/WX    TMP DP  RH WIND       PRES   REMARKS
DURANGO        PTCLDY    52  43  71 NE8       30.25S
CORTEZ         CLEAR     56  48  74 NE7       30.21R
PAGOSA SPRINGS PTCLDY    50  41  72 CALM      30.33R
TELLURIDE      CLEAR     50  45  81 SE5       30.43S
WOLF CREEK PAS MOCLDY    43  36  75 SW18      30.61S
$$

COZ009-010-012-014-032>034-037-058>063-011000-
...CENTRAL COLORADO...

CITY           SKY/WX    TMP DP  RH WIND       PRES   REMARKS
ASPEN          PTCLDY    48  43  82 CALM      30.32R
BUENA VISTA    PTCLDY    47  43  85 W3        30.33S
COPPER MTN     CLEAR     46  34  61 SW8       30.58R
BERTHOUD PASS  FAIR      39  28  65 W25G36    30.58F
COTTONWOOD PAS PTCLDY    55  34  44 SW10      30.44S
GUNNISON       MOCLDY    48  39  71 N6        30.36S
KREMMLING      CLEAR     43  39  87 CALM      30.33R
LEADVILLE      PTCLDY    39  36  89 CALM      30.44R
MONARCH PASS   MOCLDY    45  36  70 W14       30.68S
SALIDA         PTCLDY    57  44  63 W5        30.37S
SUNLIGHT       CLEAR     46  43  87 CALM      30.52S
WILKERSON PASS PTCLDY    45  41  87 SW9       30.54S
$$

COZ069>075-011000-
...SAN LUIS VALLEY/SANGRE DE CRISTO MOUNTAINS...

CITY           SKY/WX    TMP DP  RH WIND       PRES   REMARKS
ALAMOSA        PTCLDY    49  47  93 MISG      30.29F
LA VETA PASS   CLEAR     46  39  76 S6        30.45F
SAGUACHE       MOCLDY    52  45  76 NW7       30.33S
$$

COZ035-036-038>040-011000-
...NORTHERN COLORADO FRONT RANGE...

CITY           SKY/WX    TMP DP  RH WIND       PRES   REMARKS
DENVER INTL AP PTCLDY    60  53  77 SW8       30.11S
DMNS CITY PARK   N/A     60  53  78 SW6       30.11S
AURORA         MOCLDY    56  54  91 S8        30.12F
FRONT RANGE AP NOT AVBL
ERIE MUNI ARPT CLEAR     57  53  85 S3        30.09S
BOULDER MUN AP CLEAR     57  50  77 CALM      30.08F
CENTENNIAL     MOCLDY    56  51  84 SW7       30.13F
BROOMFIELD     CLEAR     57  52  82 SW3       30.12F
FORT COLLINS   CLEAR     55  50  82 CALM      30.09F
LONGMONT       CLEAR     57  51  82 CALM      30.10S
$$

COZ041-046-047-076>085-087-088-011000-
...PIKES PEAK/PALMER DIVIDE AND SOUTHERN FOOTHILLS...

CITY           SKY/WX    TMP DP  RH WIND       PRES   REMARKS
COLO. SPRINGS  MOCLDY    62  50  64 NW3       30.18S
A. F. ACADEMY  MOCLDY    54  50  86 N9        30.18F
ELLICOTT       MOCLDY   N/A N/A N/A CALM      30.17S
FALCON         MOCLDY    58  47  66 MISG      30.22S
FORT CARSON    MOCLDY    61  51  70 S8        30.16R
LIMON          PTCLDY    54  52  93 CALM      30.11F
MONUMENT HILL  PTCLDY    52  48  87 W12       30.22S
TRINIDAD       PTCLDY    62  51  67 W8        30.16S
$$

COZ042>045-048>051-090-091-011000-
...NORTHEAST COLORADO...

CITY           SKY/WX    TMP DP  RH WIND       PRES   REMARKS
GREELEY ARPT   CLEAR     54  48  82 CALM      30.08S
AKRON          PTCLDY    60  56  86 W12       30.04F
BURLINGTON     MOCLDY    62  59  90 S6        30.06R
WRAY           CLOUDY    62  62 100 W6        29.99S
STERLING       PTCLDY    55  55 100 S3        30.01S
HOLYOKE        CLOUDY    64  59  82 W8        29.98R
FORT MORGAN    PTCLDY    55  53  92 W8        30.06F
$$

COZ086-089-092>099-011000-
...SOUTHEAST COLORADO...

CITY           SKY/WX    TMP DP  RH WIND       PRES   REMARKS
PUEBLO         PTCLDY    60  52  74 N6        30.10F
LA JUNTA       MOCLDY    67  58  72 W8        30.06F
LAMAR          MOCLDY    67  60  78 CALM      30.02S
SPRINGFIELD      N/A     65  54  67 NW7       30.05S
$$




USA.gov is the U.S. government's official web portal to all federal, state and local government web resources and services.